Wind_Speed
6 6 6 7 7 9 11 12 11 10 9 9 10 9 10 7 3 4 5 5 9 8 9 10 11 13 17 17 17 17 16 15 13 13 13 11 10 11 12 13 17 19 18
7 6 6 4 3 3 4 7 8 8 8 7 7 7 6 5 4 3 4 7 8 6 8 10 11 12 12 13 16 19 18 17 17 16 15 15 14 14 14 14 16 18 21
9 8 7 7 5 4 3 2 2 3 3 4 4 4 3 3 2 2 1 3 4 5 5 4 3 4 8 12 13 13 14 15 18 20 19 18 17 17 17 17 18 18 19
10 11 10 10 9 7 6 6 5 2 3 3 2 0 0 0 1 2 3 3 4 5 6 6 5 4 5 7 8 10 12 13 13 14 15 17 19 21 21 21 21 20 21
11 11 12 13 13 12 12 9 7 7 6 6 7 6 5 5 4 5 6 7 6 6 8 8 9 8 9 9 9 8 9 10 11 12 13 14 15 16 19 21 23 23 23
15 14 13 13 14 15 15 14 13 12 10 10 10 10 9 9 8 9 9 10 11 12 13 14 14 14 13 12 12 12 12 11 11 12 13 14 16 16 16 17 18 20 22
15 16 16 16 15 16 17 18 17 16 15 14 13 13 13 12 12 13 14 15 16 16 17 18 18 18 17 16 16 15 13 15 14 14 13 14 15 17 18 18 19 20 20
12 15 17 18 18 18 18 20 20 21 19 17 16 16 16 16 17 16 17 17 18 18 19 19 20 20 19 16 15 17 15 15 13 12 9 11 12 14 14 13 14 16 19
12 13 15 17 19 20 21 21 21 23 23 22 20 19 19 19 20 21 22 21 20 20 20 21 20 19 17 17 19 19 18 18 16 15 15 17 17 17 17 17 19 18 18
11 12 13 15 16 19 20 22 23 23 24 25 23 22 22 23 24 25 26 26 25 25 25 25 24 23 22 21 21 20 22 21 19 20 21 23 25 24 23 24 26 29 28
12 11 11 12 14 16 18 20 22 24 25 26 27 27 27 26 26 27 27 27 28 29 27 28 29 30 31 30 29 27 26 25 25 26 27 29 32 31 29 29 32 31 33
15 14 15 15 15 15 17 20 21 23 25 27 29 30 30 30 29 29 30 30 31 31 31 31 32 33 35 36 38 37 36 35 34 33 35 37 39 35 33 33 33 31 31
18 18 19 19 19 20 20 20 21 23 27 29 31 32 33 34 33 33 34 35 35 35 36 36 37 37 38 38 38 40 39 37 39 38 35 35 39 39 39 30 32 34 37
22 23 23 23 21 20 21 23 23 25 26 27 29 32 33 35 37 37 37 37 37 37 37 37 40 41 41 41 40 40 42 41 40 38 36 36 39 40 40 39 35 32 29
27 28 28 26 25 23 22 25 25 27 28 27 27 28 29 32 34 37 39 40 40 39 41 41 41 42 42 43 43 43 43 42 40 41 42 39 41 40 39 40 40 39 37
33 31 31 28 28 27 27 29 28 29 29 27 28 28 29 30 32 35 37 39 40 42 44 44 44 44 45 45 45 45 45 46 44 42 44 45 47 46 43 43 42 42 42
35 35 34 32 31 30 30 31 30 28 29 28 28 29 30 30 32 34 34 36 38 40 42 44 46 45 47 48 48 49 49 49 48 48 46 47 50 48 46 45 41 42 42
33 34 36 35 32 33 33 33 34 31 29 29 30 29 29 29 30 30 31 32 35 37 39 40 43 45 47 48 49 51 51 53 51 49 49 49 50 48 47 47 46 44 44
33 33 35 35 33 34 36 33 32 31 30 31 31 30 30 31 32 33 34 35 35 37 39 40 43 44 45 48 50 51 52 53 53 51 50 50 54 53 52 54 53 51 51
31 32 34 34 34 37 38 35 34 33 33 32 31 31 31 31 32 32 33 35 38 39 39 40 42 44 45 47 48 50 51 51 52 51 52 51 52 57 61 61 62 62 59
30 33 35 36 37 37 36 36 35 35 35 33 33 32 34 35 35 34 35 36 36 37 40 41 42 44 45 45 46 48 51 52 51 53 54 56 55 56 58 61 63 65 65
33 32 34 37 38 36 37 36 35 35 34 34 35 37 38 38 37 37 38 37 37 38 39 40 42 43 45 46 48 48 50 52 53 54 56 56 57 57 58 59 58 60 62
35 37 35 35 35 35 36 35 35 35 36 37 38 41 41 40 41 42 42 42 41 41 40 42 43 44 44 45 46 48 49 51 52 54 54 56 58 60 62 63 64 64 66
39 38 38 39 41 37 38 39 38 39 39 41 43 42 41 41 43 44 44 45 44 43 43 44 45 45 45 45 46 47 50 52 54 54 57 59 60 61 62 62 63 66 66
38 39 38 36 39 42 43 43 41 40 41 42 42 43 43 44 46 46 48 47 47 47 48 48 47 46 46 46 46 47 48 51 54 57 59 62 63 63 62 63 63 65 68
38 41 43 43 44 46 45 43 41 41 44 46 46 45 45 46 50 51 51 51 52 54 53 51 51 49 48 48 48 50 51 54 56 58 60 63 65 63 64 65 65 65 67
Wind_Direction
357 12 28 50 58 73 89 85 80 78 67 60 55 74 68 54 291 253 250 236 241 239 243 240 246 246 234 228 230 230 228 232 238 236 238 244 246 245 249 246 246 247 247
319 331 336 347 13 38 74 92 87 84 82 75 64 64 75 81 63 46 280 273 277 268 263 257 258 260 264 258 248 248 248 246 244 246 247 247 247 247 248 250 251 251 254
292 289 297 305 312 311 301 312 110 101 94 90 82 90 94 78 50 31 344 295 289 289 277 273 274 286 274 266 268 266 263 259 256 255 256 258 258 256 254 251 252 252 256
283 282 280 277 287 286 280 276 281 249 274 299 289 268 212 341 337 316 303 306 304 301 290 281 272 267 265 268 271 273 276 276 270 267 265 265 263 261 261 261 260 260 261
274 274 274 273 269 267 273 269 264 265 260 272 285 286 283 286 291 300 306 306 301 292 288 294 289 274 267 275 273 270 272 278 284 285 285 284 279 277 272 267 270 270 269
261 265 268 267 267 267 265 267 269 269 265 262 258 258 262 269 279 282 284 286 293 294 294 289 283 279 280 279 282 277 274 275 277 283 286 285 287 285 286 287 283 283 280
268 260 259 261 263 264 267 269 269 268 264 263 266 267 267 264 260 262 272 277 279 280 283 282 281 280 279 283 282 282 278 276 279 279 283 288 292 287 285 285 285 286 288
280 271 264 261 264 264 263 266 269 270 266 261 264 269 274 276 275 272 271 273 276 279 282 282 279 277 276 277 280 273 272 272 276 281 280 295 301 297 293 289 288 289 290
304 286 273 268 266 269 268 265 266 268 268 265 262 263 268 272 273 271 267 269 275 280 283 285 283 274 269 275 278 272 269 269 271 268 268 280 281 281 288 290 288 286 283
315 305 296 285 274 271 268 266 264 263 261 262 265 266 265 264 264 265 267 268 272 278 279 278 274 268 267 271 274 277 278 272 270 261 267 276 275 271 271 279 287 292 289
299 299 298 295 287 281 275 268 264 262 262 262 263 267 268 267 264 262 262 264 265 266 267 269 266 265 267 265 268 274 276 274 272 273 272 277 275 272 272 280 288 285 283
294 288 287 287 287 288 285 279 272 265 262 260 261 263 265 266 266 265 265 267 269 268 268 270 271 270 266 266 266 266 269 268 269 271 267 269 272 267 266 276 280 279 275
294 293 291 293 291 285 280 277 276 273 267 264 264 264 265 268 270 269 269 270 269 268 269 268 269 271 271 268 265 265 266 267 267 268 270 260 261 265 271 264 258 264 273
288 287 287 285 287 285 282 277 274 272 271 270 268 267 269 271 272 272 272 272 272 272 271 271 271 271 272 271 269 267 267 267 266 266 267 260 255 260 258 262 269 271 276
282 282 284 286 283 281 284 281 274 269 268 268 268 269 271 271 271 272 274 273 272 270 270 271 270 267 267 267 267 267 266 263 259 260 262 256 254 258 260 268 271 271 273
277 278 279 281 280 280 283 280 276 271 269 268 266 268 270 271 273 275 274 274 274 273 271 270 271 272 269 268 267 265 265 266 262 259 255 255 254 256 262 264 268 268 270
271 274 276 274 276 277 278 278 275 273 270 269 268 269 273 273 272 273 275 276 275 275 273 272 271 270 268 267 268 266 265 263 263 262 259 254 250 255 259 262 264 266 269
272 271 271 274 274 276 278 275 275 273 268 269 270 272 274 277 277 277 277 276 275 275 275 274 272 271 269 267 267 267 264 264 265 262 260 254 251 253 259 259 262 266 270
270 268 268 272 273 274 275 273 274 274 271 271 274 276 280 282 282 281 279 277 276 277 276 275 271 269 268 266 266 267 266 266 265 264 258 256 254 253 257 259 263 263 264
271 275 275 275 273 273 275 277 276 274 271 271 276 281 285 284 284 282 279 278 276 277 274 274 271 269 268 270 269 269 268 268 266 262 257 260 260 259 262 265 267 268 266
274 277 277 274 272 272 273 275 274 268 267 272 277 283 282 284 284 283 281 279 278 275 273 272 272 271 269 268 269 269 268 269 266 261 259 261 265 267 267 269 269 270 271
275 274 270 267 267 269 274 271 269 267 269 273 279 282 286 286 284 282 282 282 281 280 277 273 272 272 271 270 269 267 267 266 263 262 263 264 267 268 267 268 269 269 270
274 271 271 266 265 269 272 272 271 271 273 275 279 285 286 285 285 285 284 282 280 279 278 278 276 274 272 271 271 270 268 266 266 265 265 266 268 270 270 271 272 273 274
272 270 271 266 265 269 269 269 268 268 272 276 280 281 283 285 285 285 284 281 279 279 279 278 275 274 272 270 269 269 268 268 267 265 268 269 271 274 275 276 277 276 276
271 269 266 264 261 264 266 266 267 272 273 274 275 278 280 283 285 284 284 282 281 281 281 281 280 277 274 272 272 271 272 272 270 267 267 273 275 276 276 275 273 274 274
271 269 264 259 257 260 262 265 268 269 271 273 276 280 282 284 283 282 278 279 280 281 281 281 282 280 276 276 277 278 277 278 279 277 276 273 271 276 276 275 273 274 274
Height
5866 5865 5863 5862 5862 5863 5863 5864 5864 5865 5865 5866 5868 5868 5869 5870 5871 5871 5872 5872 5874 5874 5874 5874 5874 5875 5876 5875 5876 5877 5877 5878 5878 5879 5880 5881 5882 5882 5882 5883 5885 5886 5886
5866 5866 5865 5864 5864 5863 5864 5864 5864 5865 5865 5866 5867 5868 5868 5870 5871 5871 5872 5873 5874 5873 5874 5874 5874 5874 5874 5874 5875 5876 5877 5877 5878 5879 5879 5879 5879 5880 5880 5881 5883 5883 5886
5866 5866 5865 5864 5864 5864 5864 5864 5865 5865 5865 5866 5867 5868 5868 5868 5869 5870 5871 5871 5872 5872 5873 5874 5873 5873 5873 5873 5873 5873 5874 5875 5876 5877 5878 5878 5878 5878 5879 5880 5880 5880 5882
5865 5864 5864 5864 5864 5864 5864 5864 5864 5864 5865 5865 5865 5866 5866 5867 5867 5869 5870 5870 5870 5871 5872 5872 5872 5872 5872 5872 5871 5871 5872 5872 5873 5874 5874 5875 5877 5877 5877 5878 5879 5879 5879
5863 5863 5863 5863 5863 5863 5863 5863 5863 5864 5864 5863 5864 5864 5865 5866 5866 5867 5867 5868 5869 5870 5870 5870 5871 5871 5871 5871 5871 5871 5871 5872 5872 5872 5872 5872 5873 5874 5875 5875 5876 5876 5877
5860 5861 5861 5861 5861 5861 5861 5862 5862 5862 5863 5863 5864 5864 5864 5864 5864 5865 5866 5867 5867 5867 5868 5868 5869 5869 5868 5868 5869 5870 5870 5870 5871 5871 5870 5870 5870 5872 5872 5872 5872 5872 5873
5858 5858 5858 5858 5859 5859 5859 5860 5860 5861 5862 5862 5861 5861 5862 5863 5864 5864 5865 5865 5865 5866 5865 5866 5866 5866 5865 5866 5866 5866 5867 5867 5868 5868 5868 5868 5868 5869 5868 5868 5869 5869 5870
5855 5855 5855 5855 5855 5856 5856 5856 5857 5858 5859 5858 5858 5859 5859 5860 5860 5860 5861 5861 5862 5862 5862 5862 5863 5863 5862 5863 5863 5864 5864 5865 5864 5864 5864 5864 5865 5865 5864 5864 5864 5865 5866
5853 5852 5851 5851 5852 5852 5852 5853 5853 5854 5854 5855 5855 5855 5856 5856 5856 5856 5857 5857 5858 5858 5858 5858 5858 5859 5859 5860 5860 5861 5861 5861 5861 5861 5861 5861 5862 5861 5861 5859 5860 5860 5861
5851 5850 5849 5849 5848 5847 5848 5848 5848 5849 5849 5849 5850 5851 5851 5852 5852 5853 5853 5853 5853 5853 5854 5853 5854 5855 5856 5856 5857 5857 5857 5857 5857 5858 5858 5858 5858 5858 5857 5856 5856 5855 5855
5848 5847 5846 5846 5845 5845 5844 5844 5843 5843 5844 5844 5844 5845 5846 5846 5847 5848 5847 5848 5848 5849 5848 5849 5849 5850 5850 5851 5852 5852 5853 5853 5852 5852 5852 5852 5852 5852 5852 5852 5852 5851 5851
5844 5843 5842 5842 5841 5840 5840 5839 5839 5838 5838 5839 5839 5839 5840 5840 5841 5841 5842 5842 5842 5842 5842 5843 5843 5844 5844 5845 5845 5846 5846 5847 5847 5847 5847 5847 5845 5846 5845 5846 5846 5844 5843
5840 5839 5838 5837 5836 5835 5834 5834 5833 5832 5832 5833 5833 5833 5833 5833 5834 5834 5834 5834 5835 5835 5835 5836 5836 5837 5837 5837 5837 5837 5838 5838 5839 5838 5838 5839 5839 5839 5839 5838 5838 5837 5837
5835 5833 5833 5832 5831 5830 5829 5828 5827 5827 5826 5826 5826 5826 5826 5826 5826 5826 5827 5828 5828 5827 5828 5828 5828 5827 5827 5827 5828 5828 5829 5830 5830 5830 5830 5831 5830 5831 5830 5831 5830 5829 5828
5828 5827 5826 5825 5824 5823 5823 5821 5821 5820 5819 5819 5819 5819 5819 5819 5819 5819 5818 5819 5819 5819 5819 5819 5819 5820 5820 5820 5820 5820 5820 5821 5821 5821 5822 5822 5822 5822 5821 5822 5822 5822 5821
5819 5819 5817 5818 5816 5816 5815 5813 5812 5812 5812 5812 5812 5811 5812 5811 5811 5811 5810 5810 5809 5809 5809 5809 5810 5810 5811 5811 5811 5811 5811 5812 5812 5813 5813 5813 5813 5813 5813 5814 5813 5813 5812
5812 5810 5809 5808 5808 5807 5806 5805 5804 5804 5804 5803 5804 5804 5804 5804 5804 5803 5802 5802 5801 5800 5801 5800 5801 5801 5801 5801 5801 5802 5802 5802 5803 5804 5804 5803 5804 5804 5804 5804 5804 5804 5803
5804 5804 5800 5799 5799 5798 5798 5797 5796 5796 5796 5795 5796 5796 5796 5796 5796 5795 5795 5794 5793 5792 5791 5791 5791 5790 5790 5790 5790 5791 5791 5792 5792 5793 5793 5793 5794 5794 5794 5794 5794 5792 5793
5794 5794 5792 5792 5791 5790 5788 5788 5788 5786 5787 5786 5787 5788 5788 5788 5787 5786 5786 5785 5784 5784 5783 5782 5781 5779 5779 5779 5779 5779 5780 5780 5781 5782 5782 5784 5784 5784 5783 5782 5781 5780 5781
5786 5785 5784 5783 5783 5781 5779 5779 5779 5779 5778 5778 5778 5779 5778 5777 5777 5776 5775 5774 5774 5773 5772 5771 5770 5769 5768 5768 5767 5767 5768 5769 5770 5770 5772 5772 5772 5773 5772 5770 5769 5769 5769
5778 5777 5775 5773 5773 5772 5771 5770 5770 5769 5768 5770 5770 5769 5768 5767 5766 5764 5764 5763 5763 5761 5760 5759 5759 5758 5758 5758 5757 5756 5755 5757 5758 5758 5759 5761 5760 5760 5759 5759 5758 5757 5756
5767 5766 5765 5764 5763 5763 5762 5760 5760 5760 5760 5760 5759 5758 5757 5756 5756 5755 5754 5753 5752 5750 5748 5748 5747 5746 5746 5746 5746 5746 5745 5746 5746 5746 5748 5748 5748 5746 5744 5743 5741 5741 5740
5759 5757 5755 5754 5753 5753 5752 5751 5750 5750 5750 5750 5748 5748 5747 5746 5745 5744 5743 5741 5740 5738 5738 5737 5735 5734 5734 5734 5734 5734 5734 5733 5733 5733 5734 5733 5733 5731 5729 5728 5726 5724 5722
5747 5746 5745 5743 5743 5743 5741 5740 5740 5739 5739 5739 5738 5737 5736 5735 5733 5731 5730 5729 5728 5727 5726 5726 5724 5722 5721 5721 5721 5721 5722 5722 5721 5724 5720 5719 5720 5717 5714 5711 5708 5706 5705
5736 5734 5733 5733 5733 5731 5729 5728 5727 5727 5727 5726 5726 5726 5725 5723 5721 5719 5717 5716 5715 5714 5713 5713 5712 5710 5709 5708 5708 5708 5708 5709 5710 5712 5713 5706 5705 5702 5699 5696 5693 5690 5688
5724 5722 5721 5720 5718 5718 5717 5716 5716 5716 5715 5715 5715 5715 5715 5713 5709 5705 5702 5701 5700 5699 5699 5699 5699 5698 5697 5695 5694 5694 5694 5694 5693 5694 5696 5696 5694 5687 5682 5679 5674 5670 5668